East Taunton, MA

7:49 PM EDT on August 28, 2016 (GMT -0400)
Taunton Municipal

Weather History for KTAN - August, 2012

Change the Weather History Date:

Saturday, August 18, 2012

  Actual Average Record
Temperature  
Mean Temperature 66 °F -  
Max Temperature 72 °F 81 °F 94 °F (1987)
Min Temperature 59 °F 59 °F 47 °F (1961)
Cooling Degree Days 2    
Growing Degree Days 16 (Base 50)    
Moisture  
Dew Point 64 °F    
Average Humidity 90    
Maximum Humidity 97    
Minimum Humidity 81    
Precipitation  
Precipitation 0.30 in - - ()
Sea Level Pressure  
Sea Level Pressure 29.86 in    
Wind  
Wind Speed 2 mph (WNW)    
Max Wind Speed 9 mph    
Max Gust Speed -    
Visibility 6 miles    
Events Fog , Rain , Thunderstorm    
Averages and records for this station are not official NWS values.
T = Trace of Precipitation, MM = Missing Value Source: NWS Daily Summary

Daily Weather History Graph

Daily Weather History Graph

Search for Another Location

Airport or City:

Trip Planner

Search our weather history database for the weather conditions in past years. The results will help you decide how hot, cold, wet, or windy it might be!

Date:

Astronomy

Aug. 18, 2012 Rise Set
Actual Time 5:55 AM EDT 7:39 PM EDT
Civil Twilight 5:26 AM EDT 8:08 PM EDT
Nautical Twilight 4:49 AM EDT 8:44 PM EDT
Astronomical Twilight 4:11 AM EDT 9:23 PM EDT
Moon 7:02 AM EDT (8/18) 7:50 PM EDT (8/18)
Length of Visible Light 14h 42m
Length of Day
13h 43m
New Moon, 1% of the Moon is Illuminated
Aug 18
New Moon
Aug 24
First Quarter
Aug 31
Full
Sep 8
Last Quarter
Sep 15
New

Hourly Weather History & Observations

Time (EDT) Temp. Dew Point Humidity Pressure Visibility Wind Dir Wind Speed Gust Speed Precip Events Conditions
12:52 AM 72.0 °F 69.1 °F 91% 29.82 in 5.0 mi Calm Calm - N/A   Clear
1:52 AM 70.0 °F 68.0 °F 93% 29.82 in 3.0 mi Calm Calm - N/A   Clear
2:01 AM 70.0 °F 68.0 °F 93% 29.82 in 2.5 mi Calm Calm - N/A   Partly Cloudy
2:37 AM 70.0 °F 68.0 °F 93% 29.82 in 1.8 mi Calm Calm - N/A   Clear
2:52 AM 69.1 °F 66.9 °F 93% 29.82 in 2.5 mi Calm Calm - N/A   Partly Cloudy
3:02 AM 70.0 °F 68.0 °F 93% 29.82 in 4.0 mi Calm Calm - N/A   Mostly Cloudy
3:52 AM 69.1 °F 66.9 °F 93% 29.81 in 5.0 mi Calm Calm - N/A   Overcast
4:52 AM 70.0 °F 66.9 °F 90% 29.83 in 4.0 mi WNW 8.1 mph - 0.03 in Rain , Thunderstorm Rain
4:57 AM 69.1 °F 66.0 °F 90% 29.84 in 1.8 mi WNW 9.2 mph - 0.07 in Rain , Thunderstorm Heavy Rain
5:09 AM 68.0 °F 64.9 °F 90% 29.84 in 3.0 mi WNW 3.5 mph - 0.13 in Rain , Thunderstorm Rain
5:29 AM 69.1 °F 66.0 °F 90% 29.85 in 9.0 mi Calm Calm - 0.14 in   Overcast
5:52 AM 68.0 °F 66.0 °F 93% 29.84 in 6.0 mi East 4.6 mph - 0.16 in Rain Light Rain
6:32 AM 68.0 °F 66.0 °F 93% 29.85 in 2.5 mi West 3.5 mph - 0.00 in   Overcast
6:50 AM 69.8 °F 66.2 °F 88% 29.86 in 3.0 mi WNW 3.5 mph - 0.00 in   Overcast
6:52 AM 69.1 °F 66.9 °F 93% 29.86 in 4.0 mi NW 3.5 mph - 0.00 in   Overcast
7:52 AM 68.0 °F 64.0 °F 87% 29.87 in 10.0 mi NW 4.6 mph - N/A   Mostly Cloudy
8:48 AM 66.2 °F 62.6 °F 88% 29.89 in 1.8 mi Variable 4.6 mph - 0.06 in Rain Light Rain
8:59 AM 64.9 °F 62.1 °F 90% 29.87 in 2.0 mi NNW 8.1 mph - 0.01 in Rain Light Rain
9:07 AM 66.0 °F 62.1 °F 87% 29.87 in 10.0 mi NNW 6.9 mph - 0.01 in Rain Light Rain
9:52 AM 66.0 °F 63.0 °F 90% 29.88 in 10.0 mi NNW 4.6 mph - 0.01 in Rain Light Rain
10:52 AM 66.0 °F 63.0 °F 90% 29.88 in 10.0 mi Calm Calm - 0.01 in   Overcast
11:52 AM 66.9 °F 62.1 °F 84% 29.89 in 10.0 mi NW 4.6 mph - N/A   Overcast
12:08 PM 66.9 °F 62.1 °F 84% 29.91 in 10.0 mi West 4.6 mph - 0.00 in Rain Light Rain
12:52 PM 64.9 °F 62.1 °F 90% 29.89 in 10.0 mi NW 4.6 mph - 0.04 in Rain Light Rain
1:16 PM 66.0 °F 62.1 °F 87% 29.90 in 5.0 mi WNW 4.6 mph - 0.01 in Rain Light Rain
1:52 PM 66.9 °F 61.0 °F 81% 29.88 in 10.0 mi Calm Calm - 0.02 in   Overcast
2:13 PM 66.9 °F 62.1 °F 84% 29.88 in 10.0 mi NNW 3.5 mph - 0.00 in Rain Light Rain
2:21 PM 66.9 °F 62.1 °F 84% 29.88 in 10.0 mi Calm Calm - 0.00 in Rain Light Rain
2:52 PM 68.0 °F 64.0 °F 87% 29.88 in 10.0 mi SSW 4.6 mph - 0.00 in Rain Light Rain
3:03 PM 66.9 °F 63.0 °F 87% 29.88 in 8.0 mi Variable 3.5 mph - 0.00 in Rain Light Rain
3:10 PM 66.9 °F 64.0 °F 90% 29.88 in 9.0 mi West 5.8 mph - 0.01 in Rain Light Rain
3:21 PM 66.9 °F 64.0 °F 90% 29.88 in 10.0 mi West 5.8 mph - 0.01 in Rain Light Rain
3:52 PM 66.9 °F 62.1 °F 84% 29.87 in 10.0 mi WNW 3.5 mph - 0.01 in   Overcast
4:52 PM 68.0 °F 63.0 °F 84% 29.86 in 10.0 mi Calm Calm - 0.02 in Rain Light Rain
5:52 PM 66.9 °F 63.0 °F 87% 29.85 in 10.0 mi Calm Calm - 0.00 in   Overcast
6:52 PM 66.9 °F 63.0 °F 87% 29.85 in 10.0 mi Calm Calm - 0.00 in   Overcast
7:52 PM 66.0 °F 64.0 °F 93% 29.85 in 10.0 mi Calm Calm - N/A   Overcast
8:52 PM 66.0 °F 64.0 °F 93% 29.88 in 7.0 mi Calm Calm - N/A   Overcast
9:52 PM 64.0 °F 63.0 °F 96% 29.87 in 5.0 mi Calm Calm - N/A   Mostly Cloudy
10:04 PM 64.0 °F 62.1 °F 93% 29.87 in 1.8 mi Calm Calm - N/A   Mostly Cloudy
10:15 PM 63.0 °F 61.0 °F 93% 29.87 in 0.8 mi Calm Calm - N/A   Mostly Cloudy
10:28 PM 63.0 °F 61.0 °F 93% 29.88 in 1.5 mi Calm Calm - N/A   Mostly Cloudy
10:34 PM 62.1 °F 61.0 °F 96% 29.88 in 3.0 mi Calm Calm - N/A   Mostly Cloudy
10:37 PM 62.1 °F 60.1 °F 93% 29.88 in 1.8 mi Calm Calm - N/A   Mostly Cloudy
10:41 PM 62.1 °F 60.1 °F 93% 29.88 in 0.8 mi Calm Calm - N/A   Scattered Clouds
10:52 PM 61.0 °F 60.1 °F 97% 29.88 in 0.5 mi Calm Calm - N/A Fog Fog
11:09 PM 61.0 °F 59.0 °F 93% 29.87 in 0.2 mi Calm Calm - N/A Fog Fog
11:52 PM 59.0 °F 57.9 °F 96% 29.88 in 0.2 mi Calm Calm - N/A Fog Fog